AO-07 1 07530U 74089B 26165.98761480 -.00000032 00000-0 88532-4 0 9992 2 07530 101.9901 179.2113 0012546 134.1981 283.5201 12.53698088360243 UO-11 1 14781U 84021B 26166.14064494 .00001057 00000-0 11313-3 0 9994 2 14781 97.8057 131.7382 0007445 179.3593 180.7636 14.90778795256822 LO-19 1 20442U 90005G 26166.01913243 .00000104 00000-0 53800-4 0 9995 2 20442 98.8851 187.7650 0010996 207.7672 152.2926 14.34122634902089 AO-27 1 22825U 93061C 26166.18185475 .00000084 00000-0 48753-4 0 9991 2 22825 98.6881 233.5961 0009522 104.9010 255.3227 14.30941747706710 FO-29 1 24278U 96046B 26166.16701574 .00000014 00000-0 47153-4 0 9999 2 24278 98.5240 15.3160 0350880 101.6601 262.4132 13.53274235472893 GO-32 1 25397U 98043D 26165.95709969 .00000038 00000-0 36595-4 0 9997 2 25397 99.0066 158.6595 0000936 168.0137 192.1063 14.24428011451011 ISS 1 25544U 98067A 26166.18985271 .00007715 00000-0 14683-3 0 9997 2 25544 51.6338 309.9786 0004835 187.9159 172.1754 15.49238068571444 NO-44 1 26931U 01043C 26166.27348919 .00000083 00000-0 61820-4 0 9995 2 26931 67.0506 249.2215 0006067 264.6095 95.4315 14.31955478290176 SO-50 1 27607U 02058C 26166.26718992 .00000865 00000-0 11946-3 0 9995 2 27607 64.5509 134.9258 0075307 262.8261 96.4279 14.83043102264177 CO-55 1 27844U 03031E 26166.28097488 .00000237 00000-0 12153-3 0 9996 2 27844 98.6736 174.8638 0009408 183.5236 176.5879 14.24334631191401 RS-22 1 27939U 03042A 26166.31364517 .00001045 00000-0 16924-3 0 9995 2 27939 98.3463 350.6196 0009947 276.6057 160.2124 14.73465411215276 CO-65 1 32785U 08021C 26166.26004465 .00003803 00000-0 24165-3 0 9999 2 32785 97.8271 147.6385 0010022 45.1907 315.0134 15.09436261984900 CO-66 1 32791U 08021J 26165.98115090 .00016500 00000-0 52480-3 0 9990 2 32791 97.7510 163.7734 0001399 12.1045 348.0229 15.32687041986951 RS-30 1 32953U 08025A 26166.32794534 .00000111 00000-0 72857-3 0 9990 2 32953 82.5040 356.5974 0018931 318.1097 41.8534 12.43179679819465 SRMSAT 1 37841U 11058D 26166.09346315 .00000356 00000-0 49299-4 0 9991 2 37841 19.9720 72.1399 0011839 180.5594 207.7984 14.11575160757522 ZACUBE-1 1 39417U 13066B 26166.14099515 .00003020 00000-0 23640-3 0 9998 2 39417 97.8083 128.4670 0040580 254.8393 104.8341 15.01179105680421 Delfi-N3xt 1 39428U 13066N 26166.30393382 .00003908 00000-0 34364-3 0 9997 2 39428 97.8341 86.6175 0073567 212.0596 147.6140 14.95062716674344 GOMX-1 1 39430U 13066Q 26166.27934856 .00001958 00000-0 29764-3 0 9994 2 39430 97.6480 6.8625 0130165 83.6082 277.9929 14.69455078669639 LO-74 1 39440U 13066AA 26166.32154138 .00003784 00000-0 35112-3 0 9991 2 39440 97.8905 115.2917 0058512 35.0679 325.4371 14.93747355676717 AO-73 1 39444U 13066AE 26166.20043176 .00005988 00000-0 37272-3 0 9998 2 39444 97.8272 137.6048 0035478 207.9767 151.9555 15.09468323679368 DTUSAT-2 1 40030U 14033W 26166.25647814 .00005713 00000-0 30982-3 0 9997 2 40030 98.0859 163.8609 0006465 232.9556 127.1083 15.14996756652394 LILACSAT-2 1 40908U 15049K 26166.33728022 .00014688 00000-0 25095-3 0 9999 2 40908 97.4645 203.1085 0005398 253.9499 106.1159 15.51391893595460 Horyu-4 1 41340U 16012D 26166.18510468 .00380379 50901-4 95954-3 0 9990 2 41340 30.9848 93.7180 0004979 258.8543 101.1559 15.94345425570497 Lapan A3 1 41603U 16040E 26166.23306535 .00003009 00000-0 96307-4 0 9994 2 41603 97.1485 162.4430 0011128 32.3394 327.8529 15.33093140554512 CAS-2T 1 41847U 16066G 26166.16278910 .00001557 00000-0 22513-3 0 9992 2 41847 98.3821 241.9223 0342731 135.6008 227.3214 14.44688208504503 TechnoSat 1 42829U 17042E 26166.32108623 .00003553 00000-0 25397-3 0 9990 2 42829 97.4276 324.0495 0018840 100.1181 260.2172 15.04948960486422 AO-91 1 43017U 17073E 26166.15741311 .00007110 00000-0 31144-3 0 9992 2 43017 97.4708 33.4140 0149876 336.3288 23.1094 15.12691505465082 S-Net D 1 43186U 18014G 26166.28467622 .00004634 00000-0 24007-3 0 9997 2 43186 97.5370 71.0875 0009114 36.1166 324.0681 15.16657298458473 S-Net B 1 43187U 18014H 26166.23011396 .00004268 00000-0 22153-3 0 9999 2 43187 97.5377 71.0202 0009620 31.4582 328.7225 15.16626414458467 S-Net A 1 43188U 18014J 26166.28356420 .00004630 00000-0 23980-3 0 9997 2 43188 97.5385 71.2812 0009525 32.0131 328.1679 15.16665136458479 S-Net C 1 43189U 18014K 26166.29995792 .00004162 00000-0 21616-3 0 9994 2 43189 97.5402 71.3721 0010661 23.9370 336.2357 15.16618943457024 Ten-Koh 1 43677U 18084G 26166.05978900 .00001948 00000-0 14984-3 0 9998 2 43677 98.0773 358.3339 0011375 120.3381 239.8970 15.02936544415841 PO-101 1 43678U 18084H 26166.30261269 .00002287 00000-0 18679-3 0 9992 2 43678 98.1176 2.4289 0012388 176.2540 183.8778 15.00444462415938 QO-100 1 43700U 18090A 26166.26412792 .00000148 00000-0 00000-0 0 9999 2 43700 0.0185 14.7689 0001590 110.2506 259.4061 1.00269656 27657 MinXSS-2 1 43758U 18099A 26166.15107206 .00028891 00000-0 57675-3 0 9998 2 43758 97.4544 242.3758 0006493 263.5903 96.4607 15.46779392413815 AO-95 1 43770U 18099N 26166.11139331 .00011091 00000-0 42485-3 0 9999 2 43770 97.4386 226.3649 0008202 5.4671 354.6656 15.26676025412908 SNUSat 2 1 43782U 18099AA 26166.09772079 .00007546 00000-0 33497-3 0 9994 2 43782 97.4059 219.5134 0008719 306.8695 53.1741 15.21811146412713 SnugLite 1 43784U 18099AC 26166.11246097 .00010865 00000-0 41080-3 0 9990 2 43784 97.3873 220.4128 0001251 309.1681 50.9447 15.27141312413005 ITASat 1 1 43786U 18099AE 26166.11136198 .00006013 00000-0 28974-3 0 9999 2 43786 97.4029 217.6642 0012323 7.5940 352.5479 15.19035090412594 EAGLET 1 1 43790U 18099AJ 26166.13479766 .00003822 00000-0 22029-3 0 9997 2 43790 97.4233 215.8577 0010880 1.7928 358.3340 15.12928072412024 ESEO 1 43792U 18099AL 26165.98515453 .00002064 00000-0 15245-3 0 9994 2 43792 97.3971 203.4674 0011561 347.3137 12.7797 15.04240129411479 JO-97 1 43803U 18099AX 26166.07308693 .00015590 00000-0 48189-3 0 9995 2 43803 97.4132 228.8995 0004244 272.7751 87.3006 15.33596637413307 Suomi 100 1 43804U 18099AY 26166.11121239 .00011648 00000-0 42364-3 0 9999 2 43804 97.4195 226.5118 0008399 287.6746 72.3576 15.28375724413103 ISAT 1 43879U 18111D 26166.30813074 .00078287 00000-0 79367-3 0 9997 2 43879 97.5888 101.3854 0000719 107.8790 252.2548 15.64995478410875 UWE-4 1 43880U 18111E 26166.27346589 .00027746 00000-0 56864-3 0 9998 2 43880 97.5858 94.5767 0005864 351.2758 8.8387 15.46025124410480 Sparrow 1 43881U 18111F 26166.09689904 .00147730 00000-0 10298-2 0 9996 2 43881 97.6126 106.7393 0004400 110.6816 249.4920 15.73887773411043 Prox-1 1 44339U 19036A 26166.18286444 .00010003 00000-0 96925-3 0 9998 2 44339 23.9936 127.6416 0005623 14.1002 345.9654 14.90566351373175 Taurus 1 1 44530U 19059C 26166.27160882 .00004605 00000-0 74071-3 0 9992 2 44530 98.6404 330.9801 0007584 323.1922 36.8762 14.72077418358367 TO-108 1 44881U 19093C 26166.29462308 .00001324 00000-0 15537-3 0 9996 2 44881 97.7538 238.5726 0015092 92.6692 267.6252 14.86518540351135 RS-44 1 44909U 19096E 26165.97247567 .00000013 00000-0 12208-5 0 9990 2 44909 82.5218 341.1769 0218083 149.3296 212.0767 12.79748835302061 SALSAT 1 46495U 20068K 26165.98698011 .00006897 00000-0 24187-3 0 9991 2 46495 97.8843 168.9176 0008203 317.5916 42.4688 15.29772719315025 CSS (TIANHE-1) 1 48274U 21035A 26166.24937272 .00019313 00000-0 22892-3 0 9996 2 48274 41.4695 333.7940 0007562 61.5785 298.5815 15.60733648292865 CUTE 1 49263U 21088D 26166.24013263 .00135675 90417-5 39922-3 0 9996 2 49263 97.4149 265.3464 0007657 230.3432 129.7167 15.92661724262244 TeikyoSat 4 1 49396U 21102B 26166.06570117 .00001439 00000-0 93509-4 0 9992 2 49396 97.3671 195.6317 0010609 305.1460 54.8775 15.09502057252406 Z-Sat 1 49399U 21102E 26166.35258793 .00004133 00000-0 20450-3 0 9998 2 49399 97.3327 201.7306 0014848 252.0129 107.9487 15.18255045253161 KOSEN 1 1 49402U 21102H 26166.10997003 .00006801 00000-0 26025-3 0 9998 2 49402 97.3183 208.3073 0012976 208.0787 151.9754 15.26811594253703 HO-113 1 50466U 21131B 26166.31913072 .00000573 00000-0 19055-3 0 9994 2 50466 98.4984 258.7187 0005349 100.9006 259.2785 14.41356470234844 SNUGLITE 2 1 52899U 22065F 26166.11778972 .00000821 00000-0 16457-3 0 9998 2 52899 98.2198 310.9519 0008132 38.9764 321.2024 14.64344370210699 UmKA 1 (RS40S) 1 57172U 23091G 26166.18581988 .00005482 00000-0 25121-3 0 9999 2 57172 97.5054 224.8905 0014181 123.8643 236.3944 15.20797606163707 CubeBel-2 (EU11S) 1 57175U 23091K 26166.22067952 .00010147 00000-0 36103-3 0 9993 2 57175 97.5056 229.4196 0011277 120.5871 239.6483 15.29109980164004 RS-38S 1 57189U 23091Z 26166.25837620 .00014268 00000-0 40904-3 0 9990 2 57189 97.5098 235.7044 0008383 83.3596 276.8602 15.35973885164399 SONATE-2 1 59112U 24043Q 26166.14810382 .00034764 00000-0 45384-3 0 9990 2 59112 97.5526 316.4190 0006990 202.2408 157.8545 15.58581911127571 GRBBeta 1 60237U 24128C 26166.29535662 .00002813 00000-0 19995-3 0 9994 2 60237 61.9890 222.9040 0040883 134.2926 226.1532 15.06629131105980 Curium One 1 60242U 24128H 26166.31899872 .00005063 00000-0 29678-3 0 9998 2 60242 61.9769 212.3917 0039978 130.3830 230.0767 15.12491666106174 ROBUSTA-3A 1 60243U 24128J 26166.28272386 .00004886 00000-0 29310-3 0 9995 2 60243 61.9852 214.9797 0041567 127.7298 232.7576 15.11659592106133 CatSat 1 60246U 24125J 26165.57146735 .00054050 00000-0 70126-3 0 9993 2 60246 97.2084 18.0387 0022309 188.6038 171.4839 15.58376360106988 HYPERVIEW-1G (RS66S) 1 61772U 24199AP 26166.22080396 .00118860 00000-0 77983-3 0 9990 2 61772 97.2879 45.8418 0003347 229.5268 130.5706 15.75388314134362 AO-123 1 61781U 24199AY 26166.27533796 .00006235 00000-0 18177-3 0 9994 2 61781 97.3002 34.9638 0012468 321.8610 38.1751 15.35651871133634 JINJUSat 1B 1 63210U 25052A 26166.25359750 .00013466 00000-0 41849-3 0 9992 2 63210 97.4015 63.0067 0005488 95.7374 264.4494 15.33451604 69800 NUSHSAT 1 1 63211U 25052B 26166.23524119 .00015539 00000-0 44637-3 0 9995 2 63211 97.3989 63.5470 0005237 97.9752 262.2087 15.35907168 69840 TEVEL2-4 1 63213U 25052D 26166.16079356 .00014823 00000-0 44473-3 0 9990 2 63213 97.3913 62.5494 0004846 107.3580 252.8193 15.34549992 69809 TEVEL2-5 1 63214U 25052E 26165.98542140 .00017230 00000-0 51930-3 0 9997 2 63214 97.3911 62.3224 0004738 109.0151 251.1605 15.34373171 69770 TEVEL2-6 1 63215U 25052F 26166.25856879 .00014751 00000-0 44547-3 0 9997 2 63215 97.3915 62.5804 0004651 108.6304 251.5445 15.34344374 69814 TEVEL2-1 1 63217U 25052H 26166.22168631 .00014089 00000-0 43283-3 0 9998 2 63217 97.3885 62.1701 0004698 117.4023 242.7699 15.33812138 69798 TEVEL2-3 1 63218U 25052J 26166.21640006 .00014569 00000-0 44668-3 0 9990 2 63218 97.3890 62.1864 0004653 117.3895 242.7821 15.33867104 69792 TEVEL2-2 1 63219U 25052K 26166.22201124 .00014328 00000-0 43999-3 0 9995 2 63219 97.3886 62.1729 0004671 117.7961 242.3756 15.33820586 69792 TEVEL2-9 1 63237U 25052AD 26166.26221952 .00013263 00000-0 43321-3 0 9996 2 63237 97.3947 61.5923 0007638 136.2267 223.9582 15.31847587 69734 TEVEL2-7 1 63238U 25052AE 26166.23742285 .00012882 00000-0 42471-3 0 9992 2 63238 97.3951 61.4847 0007732 136.5558 223.6294 15.31552974 69724 TEVEL2-8 1 63239U 25052AF 26166.24565472 .00013007 00000-0 42900-3 0 9992 2 63239 97.3952 61.4697 0007748 137.3635 222.8209 15.31537098 69728 SPIRONE 1 66657U 25274H 26166.04408140 .00001491 00000-0 14668-3 0 9995 2 66657 97.7485 95.3661 0012888 28.3954 331.7966 14.93538681 29903 K-HERO 1 66660U 25274L 26166.04927407 .00001402 00000-0 13684-3 0 9990 2 66660 97.7491 95.5307 0014818 31.4055 328.8046 14.93955712 29910 SNUGLITE-III DURI 1 66661U 25274M 26166.30501311 .00001485 00000-0 14443-3 0 9997 2 66661 97.7488 95.8032 0015475 31.4633 328.7510 14.93996943 29957 SAKHACUBE-CHOLBON 1 67290U 25313AU 26166.19163085 .00007413 00000-0 30087-3 0 9998 2 67290 97.3939 241.2509 0009071 12.6491 347.4972 15.24857114 25673 RS95S (QMR-KWT-2) 1 67291U 25313AV 26166.18172518 .00010496 00000-0 40737-3 0 9997 2 67291 97.3936 241.4125 0008414 10.9102 349.2317 15.26249165 25684 Ten-Koh2 1 68261U 25241B 26165.65492329 .00005705 00000-0 24669-3 0 9994 2 68261 51.6691 331.6795 0006087 134.4842 225.6634 15.23877984 14528 JACK-002 1 68417U 26067B 26166.11984136 .00005299 00000-0 25373-3 0 9999 2 68417 97.4566 124.7360 0000426 15.2240 344.9007 15.19371486 11637 DISCO 2 1 68431U 26067R 26165.87708211 .00007307 00000-0 35190-3 0 9995 2 68431 97.4601 124.4850 0003056 47.8128 312.3366 15.19043115 11599 HADES-SA (SpinnyONE) 1 68446U 26067AG 26166.11386530 .00014704 00000-0 70433-3 0 9993 2 68446 97.4398 124.4405 0009560 87.3612 272.8717 15.18996836 11616 PARUS-6U1 1 68456U 26067AS 26166.14431875 .00005146 00000-0 25993-3 0 9991 2 68456 97.4552 124.5392 0007555 77.1397 283.0681 15.17498917 11625 SAL-E 1 68458U 26067AU 26166.14007179 .00006615 00000-0 33089-3 0 9996 2 68458 97.4478 124.4725 0008014 84.4327 275.7820 15.17731363 11626 FSI-SAT 2 1 68792U 26088A 26166.16075856 .00004356 00000-0 29565-3 0 9993 2 68792 97.5060 315.4707 0015679 112.9835 247.3048 15.06821472 7983 OrigamiSat 2 1 68795U 26088D 26166.23881364 .00010316 00000-0 65956-3 0 9990 2 68795 97.5063 315.6770 0016097 87.4835 272.8236 15.08695719 8003 ARICA 2 1 68796U 26088E 26165.97234879 .00004588 00000-0 29796-3 0 9990 2 68796 97.5050 315.4076 0016971 87.2330 273.0841 15.08411138 7966 WASEDA-SAT-ZERO-II 1 68797U 26088F 26165.96837736 .00006456 00000-0 41523-3 0 9999 2 68797 97.5050 315.4119 0016730 87.1776 273.1367 15.08620550 7965 MANGARO-II-Piscus 1 68798U 26088G 26165.95904535 .00004228 00000-0 27183-3 0 9992 2 68798 97.5064 315.4311 0020467 89.4733 270.8841 15.08771761 7967 IO-86 1 40931U 25360.30710720 .00000000 00000-0 12800-3 0 00 2 40931 6.0006 332.5373 0012733 338.8432 8.1437 14.79075515 01 LILIUM-4 1 71922C 26067AC 26089.50133053 -.00014632 00000 0 -74472-3 0 04 2 71922 97.4497 49.1617 0004341 5.9603 355.7042 15.16896692 16